Simultaneous Nadir Overpasses (SNOs) Predictions

Prediction of SNOs between GOES-17 and TERRA Satellite Orbit:

Table of predicted SNOs for the next 14.0 days since TLE Epoch: 5/27/2023
Index Date Time (GOES-17) GOES-17 Lat,Lon TERRA Lat,Lon Distance(km) Time Diff (sec)
1 05/27/2023 17:07:38 -0.00,-104.73 0.18,-105.61 100.35 80
2 05/29/2023 16:54:00 -0.00,-104.73 -0.62,-101.67 347.18 80
3 05/30/2023 05:14:22 0.00,-104.70 -0.37,-106.63 218.19 80
4 06/01/2023 04:55:24 0.01,-104.70 0.44,-102.69 229.15 80
5 06/01/2023 17:15:35 -0.01,-104.73 0.61,-107.59 325.46 80
6 06/03/2023 17:01:57 -0.01,-104.73 -0.22,-103.66 121.55 80
7 06/04/2023 05:22:17 0.02,-104.70 -0.83,-108.60 443.60 80
8 06/06/2023 05:03:20 0.02,-104.69 0.03,-104.67 2.88 80
9 06/08/2023 04:47:01 0.02,-104.68 0.84,-100.72 449.39 80
10 06/08/2023 17:07:11 -0.02,-104.70 0.21,-105.62 105.69 80
